Location: Unspecified
(29.9680°N, 0.0000°E)
Time: 19:11:36
(UTC+00:00)

Tiros 1 despin weight - Visible Passes

Search period start: 16 June 2019 00:00
Search period end: 26 June 2019 00:00
Orbit: 595 x 642 km, 48.2° (Epoch: 15 June)

Date Brightness Start Highest point End Pass type
(mag) Time Alt. Az. Time Alt. Az. Time Alt. Az.
16 Jun ? 01:32:00 24° N 01:32:00 24° N 01:34:22 10° NNE visible
17 Jun ? 01:47:26 18° NNW 01:47:26 18° NNW 01:50:24 10° NNE visible
18 Jun ? 00:25:48 13° NNE 00:25:48 13° NNE 00:26:20 10° NE visible
18 Jun ? 02:03:08 10° NW 02:04:32 11° NNW 02:05:55 10° N visible
19 Jun ? 00:41:06 17° N 00:41:06 17° N 00:42:32 10° NNE visible
20 Jun ? 00:56:19 14° NNW 00:56:19 14° NNW 00:58:25 10° N visible
20 Jun ? 04:21:24 10° N 04:22:35 11° NNE 04:23:47 10° NE visible
20 Jun ? 23:34:25 11° NNE 23:34:25 11° NNE 23:34:34 10° NNE visible
21 Jun ? 23:49:18 15° N 23:49:18 15° N 23:50:39 10° NNE visible
23 Jun ? 00:03:46 12° NNW 00:04:34 12° NNW 00:06:19 10° N visible
23 Jun ? 03:29:07 10° N 03:31:11 13° NNE 03:33:16 10° NE visible
23 Jun ? 20:53:01 10° SSW 21:03:16 - ENE 20:53:46 14° SSW visible
23 Jun ? 22:40:02 24° N 22:40:02 24° N 22:42:46 10° NNE visible
24 Jun ? 03:44:54 10° NNW 03:48:15 21° NNE 03:51:37 10° E visible
24 Jun ? 19:30:50 10° SSE 19:32:48 13° SE 19:34:46 10° ESE visible
24 Jun ? 21:09:24 10° SW 21:13:55 77° NW 21:18:22 10° NE visible
24 Jun ? 22:53:17 10° WNW 22:56:00 16° NNW 22:58:42 10° NNE visible
25 Jun ? 02:21:59 10° N 02:22:36 10° NNE 02:23:13 10° NNE visible
25 Jun ? 04:01:01 10° NNW 04:05:08 37° NE 04:09:16 10° ESE visible
25 Jun ? 19:45:15 10° SSW 19:49:11 29° SE 19:53:04 10° ENE visible
25 Jun ? 21:26:26 10° WSW 21:30:38 37° NW 21:34:46 10° NNE visible
25 Jun ? 23:12:34 10° NNW 23:13:10 10° NNW 23:13:46 10° N visible
